Asheville, NC

6:34 PM EDT on March 23, 2017 (GMT -0400)
Asheville Regional

Weather History for KAVL - November, 2006

Change the Weather History Date:

Monday, November 20, 2006

  Actual Average Record
Temperature  
Mean Temperature 36 °F 46 °F  
Max Temperature 40 °F 57 °F 76 °F (1942)
Min Temperature 31 °F 35 °F 9 °F (1914)
Degree Days  
Heating Degree Days 29 19  
Month to date heating degree days 375 324  
Since 1 July heating degree days 775 659  
Cooling Degree Days 0 0  
Month to date cooling degree days 0 0  
Year to date cooling degree days 845 862  
Moisture  
Dew Point 24 °F    
Average Humidity 65    
Maximum Humidity 82    
Minimum Humidity 48    
Precipitation  
Precipitation T in 0.14 in 0.77 in (1988)
Month to date precipitation 3.94 2.29  
Year to date precipitation 43.07 40.62  
Snow  
Snow T in 0.00 in 1.30 in (1914)
Month to date snowfall T 0.0  
Since 1 July snowfall T 0.0  
Since 1 September snowfall T 0.0  
Snow Depth -    
Sea Level Pressure  
Sea Level Pressure 30.15 in    
Wind  
Wind Speed 14 mph (NNW)    
Max Wind Speed 23 mph    
Max Gust Speed 28 mph    
Visibility 10 miles    
Events Snow    
T = Trace of Precipitation, MM = Missing Value Source: NWS Daily Summary

Daily Weather History Graph

Daily Weather History Graph

Search for Another Location

Airport or City:

Trip Planner

Search our weather history database for the weather conditions in past years. The results will help you decide how hot, cold, wet, or windy it might be!

Date:

Astronomy

Nov. 20, 2006 Rise Set
Actual Time 7:10 AM EST 5:20 PM EST
Civil Twilight 6:43 AM EST 5:48 PM EST
Nautical Twilight 6:12 AM EST 6:19 PM EST
Astronomical Twilight 5:41 AM EST 6:49 PM EST
Moon 7:00 AM EST (11/20) 4:54 PM EST (11/20)
Length of Visible Light 11h 05m
Length of Day
10h 10m
Waning Crescent, 0% of the Moon is Illuminated
Nov 20
Waning Crescent
Nov 20
New
Nov 28
First Quarter
Dec 4
Full
Dec 12
Last Quarter

Hourly Weather History & Observations

Time (EST) Temp. Windchill Dew Point Humidity Pressure Visibility Wind Dir Wind Speed Gust Speed Precip Events Conditions
12:54 AM 36.0 °F 27.1 °F 25.0 °F 64% 30.08 in 10.0 mi NNW 13.8 mph - N/A   Overcast
1:54 AM 35.1 °F 26.4 °F 25.0 °F 67% 30.07 in 10.0 mi North 12.7 mph - N/A   Overcast
2:54 AM 35.1 °F 26.4 °F 26.1 °F 70% 30.07 in 10.0 mi NNW 12.7 mph - N/A   Overcast
3:54 AM 34.0 °F 26.6 °F 26.1 °F 73% 30.08 in 10.0 mi North 9.2 mph - N/A   Overcast
4:54 AM 34.0 °F 26.0 °F 27.0 °F 75% 30.07 in 10.0 mi North 10.4 mph - N/A   Overcast
5:54 AM 34.0 °F 26.6 °F 28.0 °F 79% 30.09 in 10.0 mi North 9.2 mph - N/A   Overcast
6:54 AM 34.0 °F 27.2 °F 28.0 °F 79% 30.10 in 10.0 mi North 8.1 mph - N/A   Overcast
7:54 AM 35.1 °F 27.4 °F 28.0 °F 76% 30.12 in 3.0 mi North 10.4 mph - 0.00 in Snow Light Snow
8:54 AM 35.1 °F 26.4 °F 28.0 °F 76% 30.14 in 3.0 mi North 12.7 mph - 0.00 in   Haze
9:17 AM 35.6 °F 26.2 °F 26.6 °F 70% 30.12 in 10.0 mi NNW 15.0 mph - N/A   Mostly Cloudy
9:54 AM 37.0 °F 28.5 °F 27.0 °F 67% 30.15 in 10.0 mi NNW 13.8 mph 24.2 mph N/A   Overcast
10:25 AM 37.4 °F 27.2 °F 26.6 °F 65% 30.13 in 10.0 mi NNW 19.6 mph - N/A   Overcast
10:54 AM 37.9 °F 29.6 °F 25.0 °F 60% 30.15 in 10.0 mi NNW 13.8 mph - N/A   Overcast
11:54 AM 39.0 °F 30.6 °F 24.1 °F 55% 30.14 in 10.0 mi NNW 15.0 mph - N/A   Mostly Cloudy
12:54 PM 39.0 °F 29.6 °F 23.0 °F 53% 30.13 in 10.0 mi NNW 18.4 mph 24.2 mph N/A   Mostly Cloudy
1:54 PM 39.0 °F 29.9 °F 21.9 °F 50% 30.13 in 10.0 mi NNW 17.3 mph - N/A   Overcast
2:54 PM 39.0 °F 29.9 °F 21.0 °F 49% 30.14 in 10.0 mi NNW 17.3 mph 24.2 mph N/A   Mostly Cloudy
3:54 PM 37.9 °F 28.5 °F 19.9 °F 48% 30.16 in 10.0 mi NNW 17.3 mph 24.2 mph N/A   Overcast
4:54 PM 37.0 °F 28.5 °F 19.9 °F 50% 30.18 in 10.0 mi NNW 13.8 mph 23.0 mph N/A   Overcast
5:54 PM 35.1 °F 25.9 °F 21.9 °F 59% 30.19 in 10.0 mi NNW 13.8 mph - N/A   Overcast
6:54 PM 34.0 °F 25.5 °F 23.0 °F 64% 30.22 in 10.0 mi NNW 11.5 mph - N/A   Overcast
7:54 PM 34.0 °F 24.2 °F 23.0 °F 64% 30.25 in 10.0 mi NNW 15.0 mph - N/A   Overcast
8:54 PM 33.1 °F 22.2 °F 21.9 °F 64% 30.27 in 10.0 mi NNW 17.3 mph - N/A   Overcast
9:54 PM 33.1 °F 21.9 °F 21.0 °F 61% 30.28 in 10.0 mi NNW 18.4 mph - N/A   Overcast
10:54 PM 32.0 °F 21.6 °F 19.9 °F 61% 30.28 in 10.0 mi NNW 15.0 mph - N/A   Overcast
11:54 PM 30.9 °F 20.2 °F 19.9 °F 64% 30.29 in 10.0 mi NNW 15.0 mph - N/A   Partly Cloudy